DECAYED

ARIANE 42P R/B, 25667 (Decayed)

Orbit data source: Space-Track

ARIANE 42P R/B, 25667 was space debris in LEO originally from a launch on Fri, 02 Apr 1999 UTC launched from the French Guiana (FRGUI). Debris objects in space refer to the collection of defunct objects orbiting the Earth. Examples of debris include non-operational satellites, rocket bodies, and fragments generated from explosions, collisions, or faulty payload assembly.

Not visible in the next 10 days
Identifier
25667, 1999-016B
Orbit
Decayed
Country
Flag of FRFR
Related business
Manufacturer
Ae/LesM
Mission
Decayed spacecraft
Bus & Motor
ARIANE H10-3, HM-7B
Mass
1,820 kg wet, 1,820 kg dry
Launch date (UTC)
1999-04-02 (27 years ago)
Launch vehicle
Unknown
Launch site
French Guiana (FRGUI)
Object type
Payload
Rocket body
Debris
Shape & HBR
Cyl, 5.5 m
Radar Cross Section
25.117 m², Large (>1 m²)

Expand to show TLE details & history
Last TLE update: 10 months ago

TLE from 10 months ago
0 ARIANE 42P R/B
1 25667U 99016B   25219.50000000  .02528315 -28160-4  81711-3 0  9994
2 25667   4.3282 335.5385 0552739  94.4094 222.8920 15.11482427367769
Epoch: 2025-08-07T12:00Z
TLE epoch observation values (Epoch: 2025-08-07T12:00:00.000Z)
Latitude
-3.17053°
Longitude
152.55215°
Altitude
817.89 km
Speed
7.29 km/s
True Right ascension
19h 15m 15s
True Declination
-3° 09' 06"
Sunlit
Object was in full shadow at epoch
Visualization orbit readout
Latitude
Unknown
Longitude
Unknown
Altitude
Unknown
Speed
Unknown
Apparent Right ascension
Unknown
Apparent Declination
Unknown
Sunlit
N/A
Visualization observer readout
Local Sidereal Time
12:24:20
Azimuth
Unknown
Elevation
Unknown
Doppler factor
Unknown
Orbital elements
Apogee altitude
920.319 km
Perigee altitude
155.752 km
Semi-major axis
6,916.172 km
Eccentricity
0.05527
Inclination
4.3282°
RAAN
335.5385°
Arg. of periapsis
94.4094°
True anomaly
218.79257°
Mean anomaly
222.892°
Eccentric anomaly
220.82173°
Mean motion
3.7735 °/min
Orbital period
95.4 mins
BSTAR
0.00081711
Loading maneuver chart data...
Computing Atmospheric mass density...
Loading historical data...
Loading historical data...
Loading historical data...
Loading historical data...
Loading historical data...
Loading historical data...
Loading historical data...
Other satellites on launch #16 in the year 1999 (1999-04-02 UTC)

Documentation

Showing up to 5 results
|